Weather History for Ireland West Airport Knock, Ireland

Change the Weather History Date:

Tuesday, November 20, 2012

  Actual Average Record
Temperature  
Mean Temperature 44 °F -  
Max Temperature 49 °F - - ()
Min Temperature 41 °F - - ()
Degree Days  
Heating Degree Days 20    
Moisture  
Dew Point 43 °F    
Average Humidity 91    
Maximum Humidity 100    
Minimum Humidity 71    
Precipitation  
Precipitation 0.31 in - - ()
Sea Level Pressure  
Sea Level Pressure 29.26 in    
Wind  
Wind Speed 15 mph ()    
Max Wind Speed 31 mph    
Max Gust Speed 46 mph    
Visibility 6.0 miles    
Events Rain    
T = Trace of Precipitation, MM = Missing Value Source: Averaged Metar Reports

Daily Weather History Graph

Daily Weather History Graph

Search for Another Location

Airport:

Trip Planner

Search our weather history database for the weather conditions in past years. The results will help you decide how hot, cold, wet, or windy it might be!

Date:

Astronomy

Nov. 20, 2012 Rise Set
Actual Time 8:12 AM GMT 4:28 PM GMT
Civil Twilight 7:32 AM GMT 5:09 PM GMT
Nautical Twilight 6:48 AM GMT 5:53 PM GMT
Astronomical Twilight 6:06 AM GMT 6:35 PM GMT
Moon 1:10 PM GMT No Moon Set
Length of Visible Light 9h 37m
Length of Day
8h 16m
Waxing Crescent, 49% of the Moon is Illuminated
Nov 20
Waxing Crescent
Nov 20
First Quarter
Nov 28
Full
Dec 6
Last Quarter
Dec 13
New

Hourly Weather History & Observations

Time (GMT) Temp. Windchill Dew Point Humidity Pressure Visibility Wind Dir Wind Speed Gust Speed Precip Events Conditions
12:00 AM 48 °F - 47 °F 96% 29.40 in - South 13.4 mph - -  
6:00 AM 47 °F - 47 °F 100% 29.27 in 4 mi South 8.9 mph - - Rain Rain
8:00 AM 44.6 °F 38.8 °F 44.6 °F 100% 29.24 in 6.2 mi SSE 11.5 mph - N/A   Mostly Cloudy
8:30 AM 44.6 °F 38.1 °F 44.6 °F 100% 29.24 in 6.2 mi South 13.8 mph - N/A   Mostly Cloudy
9:00 AM 44.6 °F 38.4 °F 44.6 °F 100% 29.24 in 6.2 mi South 12.7 mph - N/A   Scattered Clouds
9:30 AM 46.4 °F 40.4 °F 44.6 °F 93% 29.24 in 6.2 mi South 13.8 mph - N/A   Scattered Clouds
10:00 AM 46.4 °F 39.5 °F 44.6 °F 93% 29.24 in 6.2 mi South 17.3 mph - N/A   Scattered Clouds
10:30 AM 46.4 °F 39.8 °F 44.6 °F 93% 29.24 in 6.2 mi South 16.1 mph 28.8 mph N/A   Scattered Clouds
11:00 AM 46.4 °F 39.8 °F 46.4 °F 100% 29.24 in 6.2 mi South 16.1 mph - N/A   Mostly Cloudy
11:30 AM 48.2 °F - 44.6 °F 87% 29.24 in 6.2 mi South 20.7 mph - N/A   Partly Cloudy
12:00 PM 48 °F - 44 °F 82% 29.25 in 16 mi South 22.4 mph - - Rain Light Rain Showers
12:00 PM 48.2 °F - 44.6 °F 87% 29.24 in 6.2 mi South 23.0 mph 34.5 mph N/A   Partly Cloudy
12:30 PM 48.2 °F - 44.6 °F 87% 29.21 in 6.2 mi South 20.7 mph 34.5 mph N/A   Scattered Clouds
1:00 PM 48.2 °F - 42.8 °F 82% 29.21 in 6.2 mi South 23.0 mph 36.8 mph N/A   Scattered Clouds
1:30 PM 48.2 °F - 39.2 °F 71% 29.21 in 6.2 mi South 28.8 mph 46.0 mph N/A   Mostly Cloudy
2:00 PM 46.4 °F 37.5 °F 39.2 °F 76% 29.24 in 5.6 mi South 27.6 mph 39.1 mph N/A Rain Light Rain Showers
2:30 PM 46.4 °F 37.5 °F 39.2 °F 76% 29.24 in 4.3 mi South 27.6 mph 39.1 mph N/A Rain Light Rain Showers
3:00 PM 44.6 °F 35.1 °F 41.0 °F 87% 29.21 in 6.2 mi South 27.6 mph - N/A   Mostly Cloudy
3:30 PM 44.6 °F 34.6 °F 42.8 °F 93% 29.24 in 3.7 mi South 31.1 mph 46.0 mph N/A Rain Light Rain Showers
4:00 PM 44.6 °F 36.4 °F 42.8 °F 93% 29.27 in 3.1 mi SSW 20.7 mph 33.4 mph N/A Rain Light Rain Showers
4:30 PM 42.8 °F 34.0 °F 41.0 °F 93% 29.30 in 3.7 mi SSW 20.7 mph - N/A Rain Light Rain Showers
5:00 PM 41.0 °F 32.5 °F 41.0 °F 100% 29.33 in 4.3 mi South 17.3 mph 28.8 mph N/A Rain Light Rain Showers
6:00 PM 42 °F - 42 °F 98% 29.42 in 6 mi SW 11.2 mph - - Rain Light Rain Showers